VV646B KPDX-KPDX

Flight info

Callsign VV646B
Flight time 0h 12m
Altitude VFR/060
Route VFR DEP E
Aircraft H60/M-VGD/C

Departure

Time 2026-05-05 02:47
Airport Portland International Airport (KPDX)

Arrival

Time 2026-05-05 03:00
Airport Portland International Airport (KPDX)
Time Latitude Longitude Altitude Speed Heading
2026-05-05 02:38 45.38627 -121.79046 6768 ft 109 kts 288°
2026-05-05 02:39 45.38756 -121.80106 6759 ft 111 kts 288°
2026-05-05 02:39 45.38875 -121.81193 6783 ft 113 kts 288°
2026-05-05 02:39 45.39004 -121.82294 6779 ft 113 kts 288°
2026-05-05 02:39 45.39131 -121.83385 6797 ft 110 kts 288°
2026-05-05 02:40 45.39256 -121.84459 6784 ft 110 kts 288°
2026-05-05 02:40 45.39376 -121.85526 6782 ft 109 kts 288°
2026-05-05 02:40 45.39491 -121.86587 6779 ft 108 kts 288°
2026-05-05 02:40 45.39603 -121.87636 6782 ft 107 kts 288°
2026-05-05 02:41 45.39716 -121.88678 6796 ft 107 kts 288°
2026-05-05 02:41 45.39834 -121.89728 6776 ft 107 kts 288°
2026-05-05 02:41 45.39951 -121.90790 6776 ft 111 kts 288°
2026-05-05 02:41 45.40074 -121.91887 6784 ft 114 kts 288°
2026-05-05 02:42 45.40202 -121.92990 6780 ft 115 kts 288°
2026-05-05 02:42 45.40335 -121.94125 6778 ft 115 kts 288°
2026-05-05 02:42 45.40363 -121.95261 6785 ft 115 kts 276°
2026-05-05 02:42 45.40324 -121.96379 6782 ft 113 kts 276°
2026-05-05 02:43 45.40269 -121.97493 6778 ft 112 kts 276°
2026-05-05 02:43 45.40202 -121.98587 6778 ft 110 kts 276°
2026-05-05 02:43 45.40132 -121.99670 6782 ft 110 kts 276°
2026-05-05 02:43 45.40063 -122.00751 6788 ft 110 kts 276°
2026-05-05 02:44 45.40001 -122.01844 6785 ft 111 kts 276°
2026-05-05 02:44 45.39948 -122.02948 6785 ft 112 kts 276°
2026-05-05 02:44 45.39890 -122.04050 6783 ft 112 kts 276°
2026-05-05 02:44 45.39830 -122.05153 6783 ft 112 kts 276°
2026-05-05 02:45 45.39743 -122.06242 6782 ft 110 kts 276°
2026-05-05 02:45 45.39666 -122.07321 6787 ft 110 kts 276°
2026-05-05 02:45 45.39586 -122.08417 6784 ft 112 kts 276°
2026-05-05 02:45 45.39526 -122.09504 6782 ft 111 kts 276°
2026-05-05 02:46 45.39462 -122.10607 6783 ft 112 kts 276°
2026-05-05 02:46 45.39401 -122.11708 6782 ft 112 kts 276°
2026-05-05 02:46 45.39341 -122.12807 6782 ft 111 kts 276°
2026-05-05 02:46 45.39278 -122.13907 6784 ft 112 kts 276°
2026-05-05 02:47 45.39219 -122.15007 6780 ft 111 kts 276°
2026-05-05 02:47 45.39160 -122.16107 6780 ft 111 kts 276°
2026-05-05 02:47 45.39103 -122.17205 6777 ft 111 kts 276°
2026-05-05 02:47 45.39038 -122.18294 6781 ft 110 kts 276°
2026-05-05 02:48 45.38978 -122.19385 6782 ft 111 kts 276°
2026-05-05 02:48 45.38923 -122.20483 6779 ft 111 kts 276°
2026-05-05 02:48 45.38871 -122.21577 6778 ft 111 kts 276°
2026-05-05 02:48 45.38818 -122.22668 6777 ft 111 kts 276°
2026-05-05 02:49 45.38755 -122.23760 6776 ft 111 kts 276°
2026-05-05 02:49 45.38692 -122.24852 6775 ft 111 kts 276°
2026-05-05 02:49 45.38634 -122.26022 6469 ft 125 kts 278°
2026-05-05 02:49 45.38711 -122.27313 4987 ft 142 kts 282°
2026-05-05 02:50 45.38892 -122.28776 3507 ft 155 kts 288°
2026-05-05 02:50 45.39266 -122.30187 2603 ft 145 kts 290°
2026-05-05 02:50 45.39594 -122.31449 2610 ft 134 kts 289°
2026-05-05 02:50 45.39919 -122.32668 2634 ft 130 kts 289°
2026-05-05 02:51 45.40253 -122.33858 2617 ft 129 kts 289°
2026-05-05 02:51 45.40586 -122.35034 2612 ft 127 kts 289°
2026-05-05 02:51 45.40916 -122.36204 2607 ft 128 kts 290°
2026-05-05 02:51 45.41248 -122.37373 2609 ft 128 kts 290°
2026-05-05 02:52 45.41574 -122.38551 2618 ft 128 kts 289°
2026-05-05 02:52 45.41910 -122.39723 2618 ft 128 kts 290°
2026-05-05 02:52 45.42237 -122.40899 2606 ft 128 kts 289°
2026-05-05 02:52 45.42565 -122.42078 2606 ft 128 kts 289°
2026-05-05 02:53 45.42890 -122.43262 2606 ft 129 kts 289°
2026-05-05 02:53 45.43221 -122.44442 2606 ft 128 kts 290°
2026-05-05 02:53 45.43555 -122.45622 2605 ft 128 kts 289°
2026-05-05 02:53 45.43885 -122.46802 2606 ft 128 kts 290°
2026-05-05 02:54 45.44218 -122.47980 2605 ft 128 kts 289°
2026-05-05 02:54 45.44556 -122.49152 2606 ft 127 kts 289°
2026-05-05 02:54 45.44890 -122.50317 2609 ft 127 kts 290°
2026-05-05 02:54 45.45199 -122.51509 2607 ft 129 kts 287°
2026-05-05 02:55 45.45499 -122.52731 2606 ft 132 kts 288°
2026-05-05 02:55 45.45878 -122.53972 2602 ft 146 kts 290°
2026-05-05 02:55 45.46274 -122.55298 2763 ft 143 kts 291°
2026-05-05 02:55 45.46943 -122.56358 2369 ft 141 kts 316°
2026-05-05 02:56 45.47725 -122.57185 2017 ft 136 kts 322°
2026-05-05 02:56 45.48511 -122.57810 1710 ft 124 kts 329°
2026-05-05 02:56 45.49287 -122.58258 1647 ft 118 kts 335°
2026-05-05 02:56 45.50058 -122.58595 1505 ft 114 kts 342°
2026-05-05 02:57 45.50811 -122.58821 1280 ft 110 kts 347°
2026-05-05 02:57 45.51587 -122.59018 1156 ft 114 kts 347°
2026-05-05 02:57 45.52359 -122.59167 1003 ft 110 kts 351°
2026-05-05 02:57 45.53116 -122.59209 948 ft 105 kts 359°
2026-05-05 02:58 45.53813 -122.59225 818 ft 95 kts 359°
2026-05-05 02:58 45.54464 -122.59286 731 ft 93 kts 354°
2026-05-05 02:58 45.55085 -122.59356 677 ft 86 kts 356°
2026-05-05 02:58 45.55658 -122.59441 631 ft 77 kts 353°
2026-05-05 02:59 45.56184 -122.59540 582 ft 77 kts 351°
2026-05-05 02:59 45.56744 -122.59680 452 ft 86 kts 354°
2026-05-05 02:59 45.57301 -122.59820 328 ft 71 kts 353°
2026-05-05 02:59 45.57748 -122.59897 231 ft 60 kts 358°
2026-05-05 03:00 45.58070 -122.59843 162 ft 34 kts 359°
2026-05-05 03:00 45.58190 -122.59692 81 ft 9 kts 107°
2026-05-05 03:00 45.58113 -122.59663 36 ft 9 kts 146°
2026-05-05 03:00 45.58100 -122.59653 27 ft 0 kts 128°